STARLINK-5655, 55336

Orbit data source: Space-Track

STARLINK-5655, 55336 is a payload satellite owned by SpaceX/Seattle (US) in LEO that was launched on Thu, 26 Jan 2023 UTC via an FALCON 9 launch vehicle from the Air Force Eastern Test Range (AFETR). Payload-class satellites include a variety of spacecraft equipped with specific instruments for various scientific and technological missions. These include communications satellites like Starlink; space stations such as the ISS; scientific satellites like the Hubble; Earth observation satellites from companies like Planet Labs, Umbra, and HawkEye 360; GPS; miniature CubeSats for education and research; and military/defense satellites.

Loading next visibility...
Identifier
55336, 2023-013F
Orbit
LEO
Country
Flag of USUS
Related business
Manufacturer
SpaceX/Seattle
Mission
Operational Commercial Communications
Bus & Motor
STARLINK, Unknown motor
Mass
305 kg wet, ~290 kg dry
Launch date (UTC)
2023-01-26 (3 years ago)
Launch vehicle
FALCON 9
Launch site
Air Force Eastern Test Range (AFETR)
Object type
Payload
Rocket body
Debris
Shape & HBR
Box + 1 Pan, 10.1 m
Radar Cross Section
13.562 m², Large (>1 m²)

Expand to show TLE details & history
Last TLE update: 19 hours ago

TLE from 19 hours ago
0 STARLINK-5655
1 55336U 23013F   25349.51313322  .00000538  00000-0  54868-4 0  9995
2 55336  43.0043  24.9164 0001143 270.9561  89.1150 15.02534039159194
Epoch: 2025-12-15T12:18Z
TLE epoch observation values (Epoch: 2025-12-15T12:18:54.710Z)
Latitude
-0.00003°
Longitude
115.77778°
Altitude
558.852 km
Speed
7.584 km/s
True Right ascension
01h 39m 39s
True Declination
0° 00' 00"
Sunlit
Object was in full shadow at epoch
Visualization orbit readout
Latitude
Unknown
Longitude
Unknown
Altitude
Unknown
Speed
Unknown
Apparent Right ascension
Unknown
Apparent Declination
Unknown
Sunlit
N/A
Visualization observer readout
Local Sidereal Time
05:29:44
Azimuth
Unknown
Elevation
Unknown
Doppler factor
Unknown
Orbital elements
Apogee altitude
561.802 km
Perigee altitude
560.216 km
Semi-major axis
6,939.146 km
Eccentricity
0.00011
Inclination
43.0043°
RAAN
24.9164°
Arg. of periapsis
270.9561°
True anomaly
89.1281°
Mean anomaly
89.115°
Eccentric anomaly
89.12155°
Mean motion
3.75478 °/min
Orbital period
95.88 mins
BSTAR
0.000054868
Loading maneuver chart data...
Computing Atmospheric mass density...
Loading historical data...
Loading historical data...
Loading historical data...
Loading historical data...
Loading historical data...
Loading historical data...
Loading historical data...

Documentation

Showing up to 5 results
|